STARLINK-35922

Last updated on Mon Dec 15 2025 00:02:09 GMT+0000 (Coordinated Universal Time)

1 66502U 25263T 25347.77784546 .00119805 00000+0 20202-2 0 9997 2 66502 43.0006 119.0096 0001414 287.7100 72.3606 15.50532408 5726
UTC large
Height (km)
Speed (km/s)
/
Latitude / Longitude
Inclination (degrees)
Orbital Period (minutes)
Azimuth
Elevation
Range (km)
Doppler Factor

Next 0 passes for location: London (51.5072 / 0.1276)

Sorry there are no passes over London.